Regional Weather Roundup
Issued by NWS

Home | Current Version | Previous Version | Graphics & Text | Print | Product List | Glossary On
Versions: 1 2 3 4 5 6 7 8 9 10 11 12 13 14 15 16 17 18 19 20 21 22 23 24 25 26 27 28 29 30 31 32 33 34 35 36 37 38 39 40 41 42 43 44 45 46 47 48 49 50
000
ASUS45 KPSR 251900
RWRAZ

PRELIMINARY ARIZONA REGIONAL HOURLY WEATHER ROUNDUP
NATIONAL WEATHER SERVICE PHOENIX AZ
1200 PM MST THU DEC 25 2014

NOTE: FAIR INDICATES FEW OR NO CLOUDS BELOW 12,000 FEET WITH NO
SIGNIFICANT WEATHER AND/OR OBSTRUCTIONS TO VISIBILITY.

AZZ001>003-036-252000-
NORTHWEST ARIZONA

CITY           SKY/WX    TMP DP  RH WIND       PRES   REMARKS
KINGMAN        SUNNY     48  18  30 N16       29.77F
$$

AZZ004>008-015-016-018-252000-
NORTH CENTRAL ARIZONA

CITY           SKY/WX    TMP DP  RH WIND       PRES   REMARKS
GRAND CANYON   PTSUNNY   32  21  64 W12G22    29.65F WCI  23
PRESCOTT       MOSUNNY   44  21  40 W16       29.73F
FLAGSTAFF      NOT AVBL
PAYSON         CLOUDY    41  18  38 VRB7      29.74F
PAGE           CLOUDY    42  18  37 W14G22    29.61S
$$

AZZ009>014-017-252000-
NORTHEAST ARIZONA

CITY           SKY/WX    TMP DP  RH WIND       PRES   REMARKS
WINSLOW        NOT AVBL
SAINT JOHNS    CLOUDY    46  16  30 SW18G32   29.66F
WINDOW ROCK    FLURRIES  37  20  50 SW21G31   29.65F WCI  26
$$

AZZ023-252000-
GREATER PHOENIX AREA

CITY           SKY/WX    TMP DP  RH WIND       PRES   REMARKS
PHOENIX        MOSUNNY   62  25  24 W10       29.74F
GLENDALE       MOSUNNY   61  27  27 S9        29.76F
LUKE AFB       MOSUNNY   61  25  25 SW14      29.72F
DEER VALLEY    PTSUNNY   58  21  24 W10       29.73F
SCOTTSDALE     CLOUDY    61  21  21 W12G17    29.75F
MESA-FALCON    PTSUNNY   57  19  23 SW12      29.74S
CHANDLER       PTSUNNY   59  32  36 SW7       29.76S
$$

AZZ027-028-252000-
SOUTHWEST MARICOPA COUNTY AND PINAL COUNTY

CITY           SKY/WX    TMP DP  RH WIND       PRES   REMARKS
CASA GRANDE    SUNNY     61  23  23 W9        29.76S
$$

AZZ503-504-507>509-252000-
SOUTHEAST ARIZONA

CITY           SKY/WX    TMP DP  RH WIND       PRES   REMARKS
TUCSON         SUNNY     66  19  16 SW23G30   29.74F
DAVIS-MONTHAN  SUNNY     67  20  17 SW22G29   29.71F
RYAN FIELD       N/A     72  28  20 SW29G39   29.73F
NOGALES        SUNNY     65  18  16 SW25G32   29.80F
SIERRA VISTA   SUNNY     60  12  15 S23G44    29.75F
SAFFORD        SUNNY     60  18  19 W9        29.69F
$$

AZZ020-021-025-026-031-252000-
SOUTHWEST ARIZONA

CITY           SKY/WX    TMP DP  RH WIND       PRES   REMARKS
YUMA           NOT AVBL
$$

CAZ031-033-041-043-047-048-061-252000-
SOUTHERN CALIFORNIA

CITY           SKY/WX    TMP DP  RH WIND       PRES   REMARKS
DOWNTOWN L.A.  SUNNY     64  19  17 N12G21    29.88S
L.A. AIRPORT   MOSUNNY   62  28  27 N13G25    29.89R
SAN DIEGO      PTSUNNY   62  45  53 S10       29.86F
BURBANK        SUNNY     59  24  26 N18G25    29.90S
ONTARIO        MOSUNNY   59  33  37 CALM      29.86S
RIVERSIDE      SUNNY     60  23  24 NE18G26   29.86S
PALM SPRINGS   MOSUNNY   66  19  16 N18G24    29.84F
EL CENTRO NAS  CLOUDY    65  32  29 N12       29.81F
IMPERIAL       CLOUDY    64  29  26 N9        29.81S
BLYTHE         PTSUNNY   63  22  20 NW22      29.80F
$$

NVZ020-UTZ003-252000-
SOUTHERN NEVADA-UTAH

CITY           SKY/WX    TMP DP  RH WIND       PRES   REMARKS
LAS VEGAS      NOT AVBL
SALT LAKE CITY LGT SNOW  29  25  85 W14       29.67S FOG     WCI  18
$$

NMZ009-TXZ055-252000-
NEW MEXICO-WEST TEXAS

CITY           SKY/WX    TMP DP  RH WIND       PRES   REMARKS
ALBUQUERQUE    MOSUNNY   47   9  21 S18G24    29.68F
EL PASO        CLOUDY    49  14  24 S10       29.78F
$$


........................KEY........................
SKY/WX - SKY CONDITION/WEATHER
TMP    - TEMPERATURE IN FAHRENHEIT
DP     - DEW POINT IN FAHRENHEIT
RH     - RELATIVE HUMIDITY IN PERCENT
WIND   - DIRECTION AND SPEED IN MILES PER HOUR (MPH)
VRB    - VARIABLE WIND DIRECTION
PRES   - MEAN SEA LEVEL PRESSURE IN INCHES OF MERCURY
         F - FALLING PRESSURE   R - RISING PRESSURE
         S - STEADY PRESSURE
VSB    - VISIBILITY IN MILES
HX     - HEAT INDEX IN FAHRENHEIT
WCI    - WIND CHILL INDEX IN FAHRENHEIT
TC     - TEMPERATURE IN CELSIUS WHICH IS ALSO KNOWN AS
         TEMPERATURE IN CENTIGRADE
AFB    - AIR FORCE BASE
         LUKE AFB IS LUKE AIR FORCE BASE
         DAVIS-MONTHAN IS DAVIS-MONTHAN AIR FORCE BASE
NAS    - NAVAL AIR STATION
         EL CENTRO NAS IS EL CENTRO NAVAL AIR STATION
N/A    - NOT AVAILABLE


USA.gov is the U.S. government's official web portal to all federal, state and local government web resources and services.